Regional Weather Roundup
Issued by NWS

Home | Current Version | Previous Version | Text Only | Print | Product List | Glossary Off
Versions: 1 2 3 4 5 6 7 8 9 10 11 12 13 14 15 16 17 18 19 20 21 22 23 24 25 26 27 28 29 30 31 32 33 34 35 36 37 38 39 40 41 42 43 44 45 46 47 48 49 50

837
ASUS43 KTOP 290608
RWRKS

WEATHER ROUNDUP FOR KANSAS
NATIONAL WEATHER SERVICE GOODLAND KS
100 AM CDT SAT APR 29 2017

NOTE:  "FAIR" INDICATES FEW OR NO CLOUDS BELOW 12,000 FEET WITH NO
SIGNIFICANT WEATHER AND/OR OBSTRUCTIONS TO VISIBILITY.

KSZ001>006-013>018-027>032-041>047-290700-
NORTHWEST KANSAS

CITY           SKY/WX    TMP DP  RH WIND       PRES   REMARKS
GOODLAND       LGT SNOW  33  33 100 NE21G28   29.99F FOG     WCI  21
6HR MIN TEMP:  33; 6HR MAX TEMP:  36; 6HR PCP:  0.03;

HAYS           LGT RAIN  39  37  92 N23       29.96F WCI  28
HILL CITY      CLOUDY    39  37  92 NE15      30.02F WCI  31
6HR MIN TEMP:  39; 6HR MAX TEMP:  41;

RUSSELL        LGT RAIN  39  38  96 N22G29    29.93F FOG     WCI  29
6HR MIN TEMP:  39; 6HR MAX TEMP:  46; 6HR PCP:  0.02;

$$

KSZ061>065-074>080-084>089-290700-
SOUTHWEST KANSAS

CITY           SKY/WX    TMP DP  RH WIND       PRES   REMARKS
DODGE CITY     RAIN      39  38  96 NE23G33   29.87F FOG     WCI  28
6HR MIN TEMP:  39; 6HR MAX TEMP:  53; 6HR PCP:  0.49;

ELKHART          N/A     42  38  86 N12         N/A
GARDEN CITY    LGT RAIN  38  35  89 NE24G33   29.91S WCI  27
6HR MIN TEMP:  38; 6HR MAX TEMP:  48; 6HR PCP:  0.67;

GREAT BEND     RAIN      41  39  93 N20G29    29.93R
LIBERAL        RAIN      41  39  93 N22       29.84R FOG
PRATT          LGT RAIN  39  38  94 N23G33    29.86F WCI  29
6HR MIN TEMP:  39; 6HR MAX TEMP:  61; 6HR PCP:  0.04;

$$

KSZ066>073-081>083-090>101-290700-
SOUTHEAST KANSAS

CITY           SKY/WX    TMP DP  RH WIND       PRES   REMARKS
CHANUTE        CLOUDY    52  51  97 NE16G24   29.80R FOG
6HR MIN TEMP:  52; 6HR MAX TEMP:  70;

COFFEYVILLE    CLOUDY    60  58  92 N14       29.73S
6HR MIN TEMP:  61; 6HR MAX TEMP:  69; 6HR PCP:  0.04;

HUTCHINSON     CLOUDY    44  41  89 N21G30    29.83F
6HR MIN TEMP:  44; 6HR MAX TEMP:  64; 6HR PCP: TRACE;

MEDICINE LODGE   N/A     45  42  89 N18G28    29.77F
NEWTON         CLOUDY    43  42  97 NE22G30   29.80F
PARSONS        LGT RAIN  57  55  93 N8G20     29.77R
6HR MIN TEMP:  57; 6HR MAX TEMP:  69; 6HR PCP: TRACE;

WICHITA INTL   CLOUDY    47  44  90 N25G32    29.76F
6HR MIN TEMP:  47; 6HR MAX TEMP:  69;

WICHITA JABRA  CLOUDY    46  44  93 N20G29    29.77F
6HR MIN TEMP:  46; 6HR MAX TEMP:  68;

WICHITA MCCONL CLOUDY    46  43  87 NE23G32   29.77F
WINFIELD       CLOUDY    54  48  80 NE16G23   29.75S
6HR MIN TEMP:  53; 6HR MAX TEMP:  72;

$$

KSZ007>012-019>026-033>040-048>060-102>105-290700-
NORTHEAST KANSAS

CITY           SKY/WX    TMP DP  RH WIND       PRES   REMARKS
CONCORDIA      CLOUDY    41  39  93 N16G24    29.95F
6HR MIN TEMP:  41; 6HR MAX TEMP:  42;

EMPORIA        CLOUDY    45  45 100 N15       29.84F
6HR MIN TEMP:  45; 6HR MAX TEMP:  62;

LAWRENCE       CLOUDY    45  45 100 NW16      29.88F FOG
6HR MIN TEMP:  45; 6HR MAX TEMP:  54;

MANHATTAN      CLOUDY    44  41  89 NE12      29.91F
6HR MIN TEMP:  44; 6HR MAX TEMP:  49;

MARYSVILLE     LGT RAIN  41  41 100 NE14G22   29.96F
OLATHE IND     FOG       44  44 100 N17       29.87S VSB 3/4
6HR MIN TEMP:  45; 6HR MAX TEMP:  64;

OLATHE EXE     CLOUDY    44  44 100 N15       29.87F FOG
6HR MIN TEMP:  44; 6HR MAX TEMP:  63;

SALINA         CLOUDY    45  40  82 N17       29.92F
6HR MIN TEMP:  44; 6HR MAX TEMP:  51;

TOPEKA BILLARD CLOUDY    45  45 100 N15G23    29.90F
6HR MIN TEMP:  45; 6HR MAX TEMP:  50;

TOPEKA FORBES  CLOUDY    46  44  93 N14       29.88F FOG
6HR MIN TEMP:  46; 6HR MAX TEMP:  53;

$$




USA.gov is the U.S. government's official web portal to all federal, state and local government web resources and services.